When you browse on this site, cookies collect data to enhance your experience and personalize the content and advertising you see.
Visit our Privacy Policy to learn more. By continuing to use the site, you agree to this use of cookies and data.
  • în România
  • Lista ţărilor
  • Pe 7 zile
  • Temperatura apei
  • Meteo pe hartă
  • Widget-uri
  • user-avatar
    Intrare

    Meteo pe oră la San Juan

    Astăzi, 12 Decembrie, Joi

    Timp Temperatura Precipitaţii Vânt Presiune Umiditate
    00:00 +31°C° 0 mm 10 m/s 704 mmHg 28%
    01:00 +29°C° 0 mm 11 m/s 705 mmHg 29%
    02:00 +28°C° 0 mm 11 m/s 705 mmHg 25%
    03:00 +26°C° 0 mm 11 m/s 705 mmHg 22%
    04:00 +23°C° 0 mm 10 m/s 706 mmHg 19%
    05:00 +23°C° 0 mm 10 m/s 706 mmHg 18%
    06:00 +23°C° 0 mm 10 m/s 707 mmHg 17%
    07:00 +22°C° 0 mm 9 m/s 707 mmHg 16%
    08:00 +23°C° 0 mm 9 m/s 707 mmHg 16%
    09:00 +24°C° 0 mm 8 m/s 707 mmHg 15%
    10:00 +26°C° 0 mm 7 m/s 707 mmHg 14%
    11:00 +27°C° 0 mm 7 m/s 706 mmHg 14%
    12:00 +28°C° 0 mm 7 m/s 706 mmHg 14%
    13:00 +28°C° 0 mm 6 m/s 705 mmHg 14%
    14:00 +28°C° 0 mm 6 m/s 704 mmHg 14%
    15:00 +29°C° 0 mm 5 m/s 704 mmHg 14%
    16:00 +29°C° 0 mm 5 m/s 704 mmHg 14%
    17:00 +28°C° 0 mm 4 m/s 704 mmHg 15%
    18:00 +27°C° 0 mm 4 m/s 704 mmHg 16%
    19:00 +26°C° 0 mm 3 m/s 705 mmHg 17%
    20:00 +26°C° 0 mm 2 m/s 705 mmHg 18%
    21:00 +25°C° 0 mm 2 m/s 705 mmHg 19%
    22:00 +24°C° 0 mm 1 m/s 705 mmHg 19%
    23:00 +24°C° 0 mm 1 m/s 705 mmHg 21%

    Mâine, 13 Decembrie, Vineri

    Timp Temperatura Precipitaţii Vânt Presiune Umiditate
    00:00 +23°C° 0 mm 1 m/s 704 mmHg 22%
    01:00 +22°C° 0 mm 1 m/s 703 mmHg 23%
    02:00 +22°C° 0 mm 1 m/s 703 mmHg 23%
    03:00 +21°C° 0 mm 2 m/s 703 mmHg 22%
    04:00 +21°C° 0 mm 2 m/s 702 mmHg 22%
    05:00 +23°C° 0 mm 2 m/s 703 mmHg 21%
    06:00 +25°C° 0 mm 2 m/s 703 mmHg 19%
    07:00 +26°C° 0 mm 2 m/s 703 mmHg 17%
    08:00 +28°C° 0 mm 3 m/s 703 mmHg 17%
    09:00 +30°C° 0 mm 4 m/s 703 mmHg 16%
    10:00 +32°C° 0 mm 4 m/s 702 mmHg 15%
    11:00 +34°C° 0 mm 4 m/s 702 mmHg 14%
    12:00 +35°C° 0 mm 3 m/s 702 mmHg 13%
    13:00 +36°C° 0 mm 3 m/s 701 mmHg 13%
    14:00 +36°C° 0 mm 3 m/s 701 mmHg 12%
    15:00 +37°C° 0 mm 4 m/s 700 mmHg 12%
    16:00 +37°C° 0 mm 4 m/s 700 mmHg 12%
    17:00 +35°C° 0 mm 4 m/s 701 mmHg 13%
    18:00 +34°C° 0 mm 4 m/s 701 mmHg 14%
    19:00 +33°C° 0 mm 3 m/s 702 mmHg 15%
    20:00 +31°C° 0 mm 3 m/s 702 mmHg 17%
    21:00 +30°C° 0 mm 2 m/s 702 mmHg 18%
    22:00 +29°C° 0 mm 1 m/s 703 mmHg 20%
    23:00 +28°C° 0 mm 1 m/s 703 mmHg 22%

    Poimâine, 14 Decembrie, Sâmbătă

    Timp Temperatura Precipitaţii Vânt Presiune Umiditate
    00:00 +27°C° 0 mm 1 m/s 702 mmHg 24%
    01:00 +27°C° 0 mm 1 m/s 702 mmHg 26%
    02:00 +26°C° 0 mm 2 m/s 702 mmHg 29%
    03:00 +26°C° 0 mm 3 m/s 702 mmHg 32%
    04:00 +25°C° 0 mm 3 m/s 702 mmHg 35%
    05:00 +27°C° 0 mm 5 m/s 703 mmHg 30%
    06:00 +28°C° 0 mm 6 m/s 703 mmHg 26%
    07:00 +29°C° 0 mm 7 m/s 704 mmHg 21%
    08:00 +31°C° 0 mm 8 m/s 703 mmHg 20%
    09:00 +32°C° 0 mm 8 m/s 703 mmHg 20%
    10:00 +33°C° 0 mm 9 m/s 703 mmHg 19%
    11:00 +33°C° 0 mm 9 m/s 702 mmHg 18%
    12:00 +34°C° 0 mm 8 m/s 702 mmHg 17%
    13:00 +35°C° 0 mm 8 m/s 701 mmHg 17%
    14:00 +35°C° 0 mm 8 m/s 701 mmHg 16%
    15:00 +35°C° 0 mm 7 m/s 701 mmHg 16%
    16:00 +35°C° 0 mm 7 m/s 700 mmHg 16%
    17:00 +34°C° 0 mm 7 m/s 701 mmHg 18%
    18:00 +33°C° 0 mm 6 m/s 702 mmHg 19%
    19:00 +32°C° 0 mm 5 m/s 702 mmHg 20%
    20:00 +30°C° 0 mm 7 m/s 703 mmHg 22%
    21:00 +29°C° 0 mm 9 m/s 704 mmHg 24%
    22:00 +29°C° 0 mm 11 m/s 704 mmHg 25%
    23:00 +27°C° 0 mm 10 m/s 705 mmHg 28%

    15 Decembrie, Duminică

    Timp Temperatura Precipitaţii Vânt Presiune Umiditate
    00:00 +26°C° 0 mm 10 m/s 705 mmHg 30%
    01:00 +24°C° 0 mm 9 m/s 705 mmHg 33%
    02:00 +23°C° 0 mm 8 m/s 705 mmHg 37%
    03:00 +23°C° 0 mm 7 m/s 706 mmHg 41%
    04:00 +22°C° 0 mm 6 m/s 706 mmHg 45%
    05:00 +23°C° 0 mm 6 m/s 706 mmHg 43%
    06:00 +24°C° 0 mm 6 m/s 707 mmHg 40%
    07:00 +26°C° 0 mm 6 m/s 707 mmHg 38%
    08:00 +27°C° 0 mm 6 m/s 707 mmHg 35%
    09:00 +28°C° 0 mm 6 m/s 707 mmHg 31%
    10:00 +29°C° 0 mm 6 m/s 706 mmHg 28%
    11:00 +30°C° 0 mm 6 m/s 706 mmHg 26%
    12:00 +32°C° 0 mm 5 m/s 705 mmHg 24%
    13:00 +33°C° 0 mm 5 m/s 705 mmHg 22%
    14:00 +33°C° 0 mm 5 m/s 704 mmHg 20%
    15:00 +33°C° 0 mm 5 m/s 704 mmHg 19%
    16:00 +33°C° 0 mm 5 m/s 703 mmHg 18%
    17:00 +32°C° 0 mm 4 m/s 703 mmHg 19%
    18:00 +30°C° 0 mm 4 m/s 704 mmHg 19%
    19:00 +29°C° 0 mm 3 m/s 704 mmHg 20%
    20:00 +29°C° 0 mm 3 m/s 704 mmHg 21%
    21:00 +28°C° 0 mm 3 m/s 704 mmHg 21%
    22:00 +27°C° 0 mm 3 m/s 704 mmHg 22%
    23:00 +27°C° 0 mm 4 m/s 704 mmHg 22%

    16 Decembrie, Luni

    Timp Temperatura Precipitaţii Vânt Presiune Umiditate
    00:00 +26°C° 0 mm 4 m/s 704 mmHg 22%
    01:00 +26°C° 0 mm 5 m/s 703 mmHg 23%
    02:00 +25°C° 0 mm 4 m/s 703 mmHg 23%
    03:00 +25°C° 0 mm 4 m/s 703 mmHg 24%
    04:00 +23°C° 0 mm 4 m/s 703 mmHg 25%
    05:00 +25°C° 0 mm 4 m/s 703 mmHg 23%
    06:00 +26°C° 0 mm 5 m/s 704 mmHg 21%
    07:00 +27°C° 0 mm 5 m/s 704 mmHg 20%
    08:00 +28°C° 0 mm 5 m/s 703 mmHg 19%
    09:00 +30°C° 0 mm 4 m/s 703 mmHg 18%
    10:00 +32°C° 0 mm 4 m/s 703 mmHg 18%
    11:00 +33°C° 0 mm 4 m/s 702 mmHg 17%
    12:00 +34°C° 0 mm 4 m/s 701 mmHg 16%
    13:00 +35°C° 0 mm 3 m/s 701 mmHg 16%
    14:00 +35°C° 0 mm 4 m/s 701 mmHg 15%
    15:00 +35°C° 0 mm 4 m/s 700 mmHg 15%
    16:00 +36°C° 0 mm 4 m/s 700 mmHg 15%
    17:00 +35°C° 0 mm 4 m/s 701 mmHg 17%
    18:00 +34°C° 0 mm 5 m/s 701 mmHg 20%
    19:00 +33°C° 0 mm 5 m/s 702 mmHg 22%
    20:00 +32°C° 0 mm 4 m/s 702 mmHg 27%
    21:00 +30°C° 0 mm 3 m/s 702 mmHg 31%
    22:00 +29°C° 0 mm 3 m/s 702 mmHg 35%
    23:00 +29°C° 0 mm 4 m/s 702 mmHg 36%

    17 Decembrie, Marţi

    Timp Temperatura Precipitaţii Vânt Presiune Umiditate
    00:00 +29°C° 0 mm 5 m/s 702 mmHg 37%
    01:00 +28°C° 0 mm 6 m/s 702 mmHg 38%
    02:00 +28°C° 0 mm 5 m/s 702 mmHg 39%
    03:00 +27°C° 0 mm 5 m/s 702 mmHg 39%
    04:00 +26°C° 0 mm 4 m/s 702 mmHg 40%
    05:00 +27°C° 0 mm 4 m/s 702 mmHg 38%
    06:00 +28°C° 0 mm 3 m/s 702 mmHg 35%
    07:00 +29°C° 0 mm 3 m/s 703 mmHg 33%
    08:00 +30°C° 0 mm 3 m/s 703 mmHg 31%
    09:00 +33°C° 0 mm 3 m/s 702 mmHg 28%
    10:00 +34°C° 0 mm 3 m/s 702 mmHg 26%
    11:00 +36°C° 0 mm 4 m/s 701 mmHg 24%
    12:00 +37°C° 0 mm 5 m/s 701 mmHg 22%
    13:00 +39°C° 0 mm 5 m/s 700 mmHg 20%
    14:00 +39°C° 0 mm 5 m/s 700 mmHg 20%
    15:00 +39°C° 0 mm 6 m/s 699 mmHg 20%
    16:00 +39°C° 0 mm 6 m/s 698 mmHg 20%
    17:00 +38°C° 0 mm 6 m/s 699 mmHg 22%
    18:00 +36°C° 0 mm 7 m/s 699 mmHg 24%
    19:00 +35°C° 0 mm 7 m/s 699 mmHg 26%
    20:00 +34°C° 0 mm 7 m/s 700 mmHg 29%
    21:00 +33°C° 0 mm 7 m/s 700 mmHg 32%
    22:00 +33°C° 0 mm 6 m/s 700 mmHg 35%
    23:00 +32°C° 0 mm 6 m/s 700 mmHg 38%
    Arată mai mult